DW4879 Weather Reports


time (UTC)temp
F
wind
direction
speed
knots
gust
knots
rain 1hr
in
rain 24hr
in
rain mn
in
humidity
%
barometer
mb
20260509002049 78 288 8.7 17.4 0.00 0.00 0.00 15 1016.7
20260509001536 78 315 10.4 19.1 0.00 0.00 0.00 15 1016.7
20260509001043 78 311 13.9 19.1 0.00 0.00 0.00 15 1016.6
20260509000549 79 271 7.8 16.5 0.00 0.00 0.00 15 1016.6
20260509000057 79 287 7.8 17.4 0.00 0.00 0.00 15 1016.7
20260508235548 79 286 11.3 17.4 0.00 0.00 0.00 15 1016.6
20260508235056 79 317 9.6 16.5 0.00 0.00 0.00 15 1016.5
20260508234552 79 235 8.7 15.6 0.00 0.00 0.00 15 1016.6
20260508234039 79 295 10.4 20.0 0.00 0.00 0.00 15 1016.6
20260508233546 79 203 11.3 21.7 0.00 0.00 0.00 15 1016.5
20260508233053 79 321 10.4 21.7 0.00 0.00 0.00 15 1016.6
20260508232559 80 292 12.2 19.1 0.00 0.00 0.00 15 1016.6
20260508232105 80 282 9.6 15.6 0.00 0.00 0.00 15 1016.5
20260508231507 80 274 10.4 18.2 0.00 0.00 0.00 15 1016.5
20260508231014 80 315 7.8 17.4 0.00 0.00 0.00 15 1016.5
20260508230520 80 306 11.3 17.4 0.00 0.00 0.00 15 1016.4
20260508230025 80 314 11.3 17.4 0.00 0.00 0.00 15 1016.4
20260508225531 80 304 7.8 15.6 0.00 0.00 0.00 15 1016.4
20260508225037 80 209 10.4 18.2 0.00 0.00 0.00 15 1016.4
20260508224545 80 273 11.3 20.0 0.00 0.00 0.00 15 1016.4
20260508224036 80 281 13.0 20.0 0.00 0.00 0.00 15 1016.4
20260508223543 80 331 8.7 18.2 0.00 0.00 0.00 15 1016.4
20260508223049 80 306 7.0 16.5 0.00 0.00 0.00 15 1016.4
20260508222555 80 275 8.7 14.8 0.00 0.00 0.00 15 1016.6
20260508222046 80 248 7.0 17.4 0.00 0.00 0.00 15 1016.6
20260508221559 80 301 7.0 17.4 0.00 0.00 0.00 15 1016.6
20260508221100 79 303 10.4 18.2 0.00 0.00 0.00 15 1016.6
20260508220502 79 290 8.7 15.6 0.00 0.00 0.00 15 1016.6
20260508220046 79 291 8.7 20.9 0.00 0.00 0.00 16 1016.7
20260508215537 79 284 12.2 20.9 0.00 0.00 0.00 16 1016.7
20260508215047 78 248 8.7 20.9 0.00 0.00 0.00 16 1016.7
20260508214550 77 306 11.3 20.9 0.00 0.00 0.00 16 1016.9
20260508214058 77 263 8.7 16.5 0.00 0.00 0.00 17 1016.9
20260508213604 76 311 10.4 20.0 0.00 0.00 0.00 17 1017.1
20260508213004 76 309 11.3 20.0 0.00 0.00 0.00 17 1017.0
20260508212600 76 288 9.6 16.5 0.00 0.00 0.00 16 1017.0
20260508212001 77 275 7.8 16.5 0.00 0.00 0.00 16 1017.1
20260508211557 77 288 6.1 13.9 0.00 0.00 0.00 16 1017.2
20260508211047 77 290 7.8 16.5 0.00 0.00 0.00 16 1017.2
20260508210556 78 257 9.6 20.9 0.00 0.00 0.00 16 1017.2
20260508210046 78 290 12.2 20.9 0.00 0.00 0.00 16 1017.1
20260508205554 78 257 7.8 17.4 0.00 0.00 0.00 16 1017.2
20260508205042 78 293 9.6 18.2 0.00 0.00 0.00 15 1017.3
20260508204535 79 224 7.8 17.4 0.00 0.00 0.00 15 1017.2
20260508204041 80 244 9.6 17.4 0.00 0.00 0.00 15 1017.4
20260508203546 80 316 11.3 16.5 0.00 0.00 0.00 15 1017.3
20260508203100 81 290 5.2 12.2 0.00 0.00 0.00 14 1017.4
20260508202543 79 232 7.0 18.2 0.00 0.00 0.00 15 1017.5
20260508202049 79 292 7.0 15.6 0.00 0.00 0.00 15 1017.5
20260508201602 78 294 6.1 16.5 0.00 0.00 0.00 16 1017.6
20260508201102 78 248 8.7 16.5 0.00 0.00 0.00 15 1017.8
20260508200552 79 274 6.1 20.0 0.00 0.00 0.00 15 1017.8
20260508200101 78 254 10.4 20.0 0.00 0.00 0.00 16 1017.8
20260508195550 78 257 6.1 14.8 0.00 0.00 0.00 15 1017.8
20260508195042 78 309 7.8 17.4 0.00 0.00 0.00 16 1017.8
20260508194548 78 290 11.3 17.4 0.00 0.00 0.00 16 1017.9
20260508194039 78 184 7.0 14.8 0.00 0.00 0.00 16 1017.9
20260508193546 78 244 7.0 16.5 0.00 0.00 0.00 16 1017.8
20260508193037 78 282 8.7 16.5 0.00 0.00 0.00 16 1017.8
20260508192542 78 186 5.2 13.9 0.00 0.00 0.00 16 1017.9
20260508192049 78 276 6.1 13.0 0.00 0.00 0.00 16 1018.0
20260508191541 77 280 6.1 14.8 0.00 0.00 0.00 16 1018.1
20260508191047 77 286 5.2 10.4 0.00 0.00 0.00 16 1018.2
20260508190554 77 296 5.2 13.9 0.00 0.00 0.00 16 1018.3
20260508185555 77 320 6.1 13.0 0.00 0.00 0.00 16 1018.3
20260508185059 76 175 5.2 14.8 0.00 0.00 0.00 17 1018.2
20260508184608 76 298 7.0 18.2 0.00 0.00 0.00 17 1018.3
20260508184009 76 190 9.6 20.0 0.00 0.00 0.00 17 1018.3
20260508183604 76 301 7.8 20.0 0.00 0.00 0.00 18 1018.5
20260508183007 76 286 9.6 15.6 0.00 0.00 0.00 17 1018.5
20260508182603 76 211 6.1 13.0 0.00 0.00 0.00 16 1018.5
20260508182003 76 160 4.3 12.2 0.00 0.00 0.00 16 1018.6
20260508181608 76 204 6.1 12.2 0.00 0.00 0.00 16 1018.7
20260508181001 76 213 4.3 15.6 0.00 0.00 0.00 17 1018.8
20260508180504 75 288 7.0 15.6 0.00 0.00 0.00 17 1019.0
20260508180106 75 294 8.7 14.8 0.00 0.00 0.00 17 1018.9
20260508175552 75 257 6.1 13.9 0.00 0.00 0.00 17 1019.0
20260508175100 75 288 7.0 13.0 0.00 0.00 0.00 17 1019.0
20260508174501 75 272 6.1 13.0 0.00 0.00 0.00 17 1019.0
20260508174008 76 273 5.2 10.4 0.00 0.00 0.00 17 1019.0
20260508173605 75 257 4.3 8.7 0.00 0.00 0.00 17 1019.2
20260508173006 75 171 4.3 8.7 0.00 0.00 0.00 17 1019.2
20260508172602 75 284 2.6 8.7 0.00 0.00 0.00 17 1019.3
20260508172052 74 234 2.6 9.6 0.00 0.00 0.00 17 1019.3
20260508171601 73 193 4.3 10.4 0.00 0.00 0.00 18 1019.4
20260508171001 71 288 5.2 10.4 0.00 0.00 0.00 19 1019.5
20260508170509 71 248 4.3 8.7 0.00 0.00 0.00 19 1019.6
20260508170105 71 244 4.3 9.6 0.00 0.00 0.00 19 1019.6
20260508165508 71 234 3.5 9.6 0.00 0.00 0.00 19 1019.7
20260508165106 71 234 2.6 7.0 0.00 0.00 0.00 20 1019.7
20260508164505 70 267 3.5 7.0 0.00 0.00 0.00 20 1019.7
20260508164101 71 247 3.5 7.0 0.00 0.00 0.00 20 1019.7
20260508163552 70 240 1.7 5.2 0.00 0.00 0.00 21 1019.8
20260508163058 70 205 2.6 6.1 0.00 0.00 0.00 21 1019.7
20260508162549 69 173 2.6 6.1 0.00 0.00 0.00 22 1019.8
20260508162055 69 134 0.9 4.3 0.00 0.00 0.00 22 1019.8
20260508161545 68 216 1.7 6.1 0.00 0.00 0.00 23 1019.7
20260508161036 67 153 4.3 6.1 0.00 0.00 0.00 24 1019.8
20260508160546 67 182 0.9 5.2 0.00 0.00 0.00 24 1019.9
20260508160049 66 150 1.7 5.2 0.00 0.00 0.00 24 1019.9
20260508155559 65 146 0.9 3.5 0.00 0.00 0.00 24 1019.8
20260508155050 65 157 0.0 3.5 0.00 0.00 0.00 24 1019.8
20260508154603 65 149 2.6 3.5 0.00 0.00 0.00 25 1019.9
20260508154046 64 192 2.6 5.2 0.00 0.00 0.00 25 1019.9
20260508153537 63 131 2.6 6.1 0.00 0.00 0.00 25 1020.0
20260508153052 63 150 1.7 6.1 0.00 0.00 0.00 26 1020.0
20260508152551 63 163 1.7 3.5 0.00 0.00 0.00 26 1019.9
20260508152059 62 120 2.6 5.2 0.00 0.00 0.00 26 1019.9
20260508151551 61 127 2.6 5.2 0.00 0.00 0.00 27 1019.9
20260508151058 61 104 1.7 6.1 0.00 0.00 0.00 28 1020.0
20260508150604 60 119 2.6 6.1 0.00 0.00 0.00 28 1020.0
20260508150007 60 119 2.6 7.0 0.00 0.00 0.00 29 1020.0
20260508145603 59 118 3.5 7.0 0.00 0.00 0.00 29 1019.9
20260508145005 59 130 4.3 6.1 0.00 0.00 0.00 29 1019.9
20260508144601 58 101 3.5 6.1 0.00 0.00 0.00 30 1020.0
20260508144002 58 134 2.6 6.1 0.00 0.00 0.00 30 1020.0
20260508143558 57 96 2.6 6.1 0.00 0.00 0.00 31 1020.0
20260508143048 57 104 2.6 7.0 0.00 0.00 0.00 32 1020.0
20260508142556 56 95 4.3 7.0 0.00 0.00 0.00 31 1020.0
20260508142047 56 132 3.5 7.0 0.00 0.00 0.00 32 1020.2
20260508141615 56 126 3.5 7.0 0.00 0.00 0.00 33 1020.0
20260508141101 55 126 3.5 7.0 0.00 0.00 0.00 32 1020.1
20260508140503 55 121 3.5 6.1 0.00 0.00 0.00 32 1020.0
20260508140046 55 129 2.6 6.1 0.00 0.00 0.00 33 1020.0
20260508135537 54 132 1.7 6.1 0.00 0.00 0.00 33 1020.0
20260508135045 53 119 2.6 7.0 0.00 0.00 0.00 33 1019.9
20260508134602 53 122 2.6 7.0 0.00 0.00 0.00 34 1019.8
20260508134103 52 88 2.6 6.1 0.00 0.00 0.00 34 1019.8
20260508133605 52 91 3.5 6.1 0.00 0.00 0.00 34 1019.7
20260508133009 51 90 2.6 6.1 0.00 0.00 0.00 35 1019.7
20260508132603 51 98 3.5 6.1 0.00 0.00 0.00 35 1019.7
20260508132007 50 101 2.6 6.1 0.00 0.00 0.00 36 1019.6
20260508131602 50 94 4.3 6.1 0.00 0.00 0.00 36 1019.6
20260508131003 49 117 3.5 6.1 0.00 0.00 0.00 37 1019.5
20260508130512 49 98 3.5 6.1 0.00 0.00 0.00 37 1019.6
20260508130105 49 111 2.6 6.1 0.00 0.00 0.00 37 1019.5
20260508125509 49 103 3.5 7.0 0.00 0.00 0.00 37 1019.5
20260508125103 48 108 2.6 7.0 0.00 0.00 0.00 38 1019.4
20260508124559 48 92 3.5 6.1 0.00 0.00 0.00 38 1019.4
20260508124100 47 98 2.6 6.1 0.00 0.00 0.00 39 1019.3
20260508123502 47 96 2.6 5.2 0.00 0.00 0.00 40 1019.3
20260508123009 47 106 2.6 7.0 0.00 0.00 0.00 40 1019.3
20260508122607 47 92 2.6 7.0 0.00 0.00 0.00 40 1019.3
20260508122008 46 96 3.5 6.1 0.00 0.00 0.00 41 1019.3
20260508121603 46 89 3.5 6.1 0.00 0.00 0.00 41 1019.3
20260508121053 46 90 2.6 5.2 0.00 0.00 0.00 40 1019.3
20260508120600 46 86 2.6 3.5 0.00 0.00 0.00 40 1019.3
20260508120051 46 101 2.6 3.5 0.00 0.00 0.00 40 1019.2
20260508115543 46 96 2.6 3.5 0.00 0.00 0.00 40 1019.2
20260508115051 46 102 2.6 3.5 0.00 0.00 0.00 40 1019.2
20260508114555 47 108 1.7 2.6 0.00 0.00 0.00 40 1019.2
20260508114104 47 109 2.6 3.5 0.00 0.00 0.00 38 1019.2
20260508113555 47 112 2.6 3.5 0.00 0.00 0.00 38 1019.2
20260508113115 48 115 1.7 3.5 0.00 0.00 0.00 38 1019.2
20260508112553 48 118 1.7 2.6 0.00 0.00 0.00 37 1019.2
20260508112044 48 106 1.7 2.6 0.00 0.00 0.00 36 1019.2
20260508111533 49 84 1.7 2.6 0.00 0.00 0.00 36 1019.2
20260508111042 49 79 0.0 3.5 0.00 0.00 0.00 36 1019.1
20260508110548 49 44 1.7 1.7 0.00 0.00 0.00 35 1019.2
20260508110059 50 355 0.9 1.7 0.00 0.00 0.00 34 1019.2
20260508105545 50 355 0.9 1.7 0.00 0.00 0.00 34 1019.1
20260508105053 51 333 0.9 0.9 0.00 0.00 0.00 34 1019.0
20260508104559 51 333 0.0 2.6 0.00 0.00 0.00 34 1019.1
20260508104002 51 333 0.9 2.6 0.00 0.00 0.00 34 1019.1
20260508103558 51 5 0.9 3.5 0.00 0.00 0.00 34 1019.1
20260508103001 51 11 1.7 3.5 0.00 0.00 0.00 33 1019.1
20260508102556 51 17 1.7 3.5 0.00 0.00 0.00 33 1019.1
20260508102047 52 11 2.6 4.3 0.00 0.00 0.00 33 1019.1
20260508101555 52 27 1.7 4.3 0.00 0.00 0.00 33 1019.1
20260508101101 52 30 2.6 5.2 0.00 0.00 0.00 33 1019.1
20260508100503 52 35 2.6 4.3 0.00 0.00 0.00 33 1019.0
20260508100049 52 13 2.6 4.3 0.00 0.00 0.00 33 1019.0
20260508095556 52 23 1.7 4.3 0.00 0.00 0.00 33 1019.0
20260508095103 52 14 2.6 4.3 0.00 0.00 0.00 33 1019.0
20260508094509 51 26 2.6 5.2 0.00 0.00 0.00 33 1019.0
20260508094012 51 19 2.6 4.3 0.00 0.00 0.00 32 1019.0
20260508093503 51 39 2.6 4.3 0.00 0.00 0.00 32 1019.0
20260508093015 51 42 2.6 4.3 0.00 0.00 0.00 32 1018.9
20260508092501 51 37 1.7 3.5 0.00 0.00 0.00 32 1019.0
20260508092009 51 31 1.7 3.5 0.00 0.00 0.00 32 1018.9
20260508091602 51 33 2.6 3.5 0.00 0.00 0.00 32 1018.9
20260508091056 51 26 1.7 2.6 0.00 0.00 0.00 32 1018.9
20260508090601 52 9 0.9 1.7 0.00 0.00 0.00 31 1019.0
20260508090053 52 22 0.9 1.7 0.00 0.00 0.00 31 1018.9
20260508085602 52 22 0.9 1.7 0.00 0.00 0.00 31 1018.9
20260508085001 53 22 0.9 2.6 0.00 0.00 0.00 31 1019.0
20260508084509 53 9 0.9 2.6 0.00 0.00 0.00 30 1018.9
20260508084015 53 14 0.9 1.7 0.00 0.00 0.00 30 1019.1
20260508083521 53 36 0.9 1.7 0.00 0.00 0.00 30 1019.0
20260508083027 53 36 0.9 1.7 0.00 0.00 0.00 30 1019.0
20260508082536 54 36 0.9 2.6 0.00 0.00 0.00 30 1019.0
20260508082040 54 39 0.9 3.5 0.00 0.00 0.00 30 1019.2
20260508081547 54 59 0.9 3.5 0.00 0.00 0.00 30 1019.1
20260508081037 54 56 1.7 2.6 0.00 0.00 0.00 30 1019.1
20260508080545 54 55 1.7 2.6 0.00 0.00 0.00 30 1019.2
20260508080051 54 66 1.7 3.5 0.00 0.00 0.00 29 1019.2
20260508075555 54 56 1.7 3.5 0.00 0.00 0.00 30 1019.2
20260508075059 54 39 1.7 3.5 0.00 0.00 0.00 30 1019.1
20260508074502 54 47 1.7 3.5 0.00 0.00 0.00 29 1019.2
20260508074058 54 37 1.7 2.6 0.00 0.00 0.00 28 1019.3
20260508073501 54 355 0.0 1.7 0.00 0.00 0.00 28 1019.3
20260508073056 54 355 0.0 1.7 0.00 0.00 0.00 27 1019.3
20260508072601 55 355 0.9 2.6 0.00 0.00 0.00 27 1019.3
20260508072005 55 343 0.9 2.6 0.00 0.00 0.00 27 1019.3
20260508071600 55 332 0.9 2.6 0.00 0.00 0.00 26 1019.3
20260508071003 56 326 0.9 1.7 0.00 0.00 0.00 26 1019.4
20260508070559 56 326 0.9 1.7 0.00 0.00 0.00 26 1019.4
20260508070002 56 338 0.9 1.7 0.00 0.00 0.00 26 1019.3
20260508065557 56 338 0.9 1.7 0.00 0.00 0.00 26 1019.4
20260508065048 56 338 0.9 1.7 0.00 0.00 0.00 26 1019.3
20260508064556 56 338 0.9 1.7 0.00 0.00 0.00 26 1019.4
20260508064047 56 329 0.9 1.7 0.00 0.00 0.00 26 1019.4
20260508063555 56 329 0.0 1.7 0.00 0.00 0.00 26 1019.2
20260508063100 56 329 0.9 1.7 0.00 0.00 0.00 26 1019.3
20260508062503 57 329 0.9 2.6 0.00 0.00 0.00 26 1019.2
20260508062100 57 329 0.9 2.6 0.00 0.00 0.00 25 1019.2
20260508061507 57 317 0.9 2.6 0.00 0.00 0.00 25 1019.1
20260508061058 57 337 0.9 3.5 0.00 0.00 0.00 25 1019.1
20260508060603 57 341 1.7 3.5 0.00 0.00 0.00 25 1019.1
20260508060002 58 350 1.7 3.5 0.00 0.00 0.00 25 1019.1
20260508055509 58 349 0.9 2.6 0.00 0.00 0.00 24 1019.1
20260508055105 58 330 0.0 1.7 0.00 0.00 0.00 24 1019.1
20260508054508 59 321 0.0 1.7 0.00 0.00 0.00 24 1019.1
20260508054100 59 321 0.0 1.7 0.00 0.00 0.00 24 1019.1
20260508053501 59 306 0.0 4.3 0.00 0.00 0.00 24 1019.1
20260508053009 59 302 1.7 4.3 0.00 0.00 0.00 24 1019.1
20260508052604 59 295 1.7 2.6 0.00 0.00 0.00 24 1019.2
20260508052008 59 269 0.9 2.6 0.00 0.00 0.00 24 1019.2
20260508051603 59 252 0.9 2.6 0.00 0.00 0.00 24 1019.3
20260508051004 59 263 0.9 2.6 0.00 0.00 0.00 24 1019.2
20260508050600 59 288 1.7 2.6 0.00 0.00 0.00 24 1019.2
20260508050050 60 287 1.7 3.5 0.00 0.00 0.00 23 1019.3
20260508045554 60 273 1.7 4.3 0.00 0.00 0.00 23 1019.3
20260508045044 60 290 2.6 6.1 0.00 0.00 0.00 23 1019.3
20260508044536 60 278 2.6 6.1 0.00 0.00 0.00 23 1019.3
20260508044045 60 257 3.5 6.1 0.00 0.00 0.00 23 1019.3
20260508043534 61 267 1.7 6.1 0.00 0.00 0.00 23 1019.2
20260508043044 61 294 2.6 7.0 0.00 0.00 0.00 23 1019.1
20260508042545 61 280 3.5 8.7 0.00 0.00 0.00 23 1019.2
20260508042053 61 304 4.3 8.7 0.00 0.00 0.00 23 1019.1
20260508041543 61 293 4.3 7.8 0.00 0.00 0.00 23 1019.0
20260508041049 61 314 5.2 7.8 0.00 0.00 0.00 23 1019.0
20260508040555 60 294 5.2 7.8 0.00 0.00 0.00 23 1019.0
20260508035502 60 299 3.5 9.6 0.00 0.00 0.00 23 1018.9
20260508035012 60 295 3.5 9.6 0.00 0.00 0.00 23 1018.8
20260508034502 61 288 3.5 6.1 0.00 0.00 0.00 22 1018.8
20260508034010 61 289 2.6 5.2 0.00 0.00 0.00 22 1018.8
20260508033514 61 293 2.6 7.0 0.00 0.00 0.00 22 1018.7
20260508033104 62 278 3.5 7.8 0.00 0.00 0.00 22 1018.6
20260508032506 62 306 3.5 10.4 0.00 0.00 0.00 22 1018.6
20260508032103 62 283 5.2 10.4 0.00 0.00 0.00 22 1018.5
20260508031551 62 287 6.1 10.4 0.00 0.00 0.00 21 1018.5
20260508031100 62 296 6.1 9.6 0.00 0.00 0.00 21 1018.4
20260508030551 63 281 5.2 9.6 0.00 0.00 0.00 21 1018.3
20260508030058 63 303 5.2 10.4 0.00 0.00 0.00 21 1018.3
20260508025603 63 273 6.1 10.4 0.00 0.00 0.00 21 1018.2
20260508025010 63 286 6.1 10.4 0.00 0.00 0.00 20 1018.2
20260508024604 64 285 6.1 9.6 0.00 0.00 0.00 20 1018.1
20260508024006 64 291 4.3 8.7 0.00 0.00 0.00 20 1018.0
20260508023600 64 294 5.2 10.4 0.00 0.00 0.00 20 1018.0
20260508023002 65 271 6.1 9.6 0.00 0.00 0.00 19 1017.9
20260508022559 65 292 4.3 9.6 0.00 0.00 0.00 19 1017.9
20260508022049 65 259 5.2 10.4 0.00 0.00 0.00 19 1017.8
20260508021557 65 268 7.0 10.4 0.00 0.00 0.00 19 1017.8
20260508021103 66 302 4.3 9.6 0.00 0.00 0.00 19 1017.8
20260508020505 66 297 5.2 10.4 0.00 0.00 0.00 18 1017.8
20260508020057 66 293 4.3 10.4 0.00 0.00 0.00 18 1017.8
20260508015604 66 294 5.2 13.0 0.00 0.00 0.00 18 1017.7
20260508015003 67 312 7.0 12.2 0.00 0.00 0.00 18 1017.7
20260508014509 67 180 6.1 12.2 0.00 0.00 0.00 18 1017.7
20260508014103 68 249 6.1 12.2 0.00 0.00 0.00 17 1017.7
20260508013508 68 293 7.8 13.9 0.00 0.00 0.00 17 1017.7
20260508013020 68 303 6.1 13.9 0.00 0.00 0.00 17 1017.8
20260508012517 68 229 7.8 14.8 0.00 0.00 0.00 17 1017.8
20260508012023 69 292 8.7 14.8 0.00 0.00 0.00 17 1017.8
20260508011532 69 277 8.7 14.8 0.00 0.00 0.00 16 1017.7
20260508011035 69 302 6.1 13.9 0.00 0.00 0.00 16 1017.9
20260508010541 69 300 7.0 14.8 0.00 0.00 0.00 16 1017.7
20260508010049 70 223 7.0 14.8 0.00 0.00 0.00 16 1017.8
20260508005540 70 265 5.2 14.8 0.00 0.00 0.00 16 1017.7
20260508005050 70 246 7.0 13.0 0.00 0.00 0.00 16 1017.9
20260508004604 70 270 7.0 13.0 0.00 0.00 0.00 16 1017.7
20260508004103 71 273 7.0 12.2 0.00 0.00 0.00 16 1017.8
20260508003552 71 304 7.8 13.9 0.00 0.00 0.00 16 1017.7
20260508003105 71 311 7.0 13.0 0.00 0.00 0.00 15 1017.8
20260508002551 71 287 7.0 14.8 0.00 0.00 0.00 15 1017.7